Teterboro, NJ

8:27 PM EDT on October 21, 2017 (GMT -0400)
Teterboro

Weather History for KTEB - April, 2014

Change the Weather History Date:

Thursday, April 10, 2014

  Actual Average Record
Temperature  
Mean Temperature 50 °F -  
Max Temperature 64 °F 58 °F 80 °F (2017)
Min Temperature 37 °F 39 °F 28 °F (1997)
Degree Days  
Heating Degree Days 15    
Moisture  
Dew Point 25 °F    
Average Humidity 36    
Maximum Humidity 54    
Minimum Humidity 26    
Precipitation  
Precipitation 0.00 in - - ()
Sea Level Pressure  
Sea Level Pressure 30.10 in    
Wind  
Wind Speed 7 mph (South)    
Max Wind Speed 16 mph    
Max Gust Speed 25 mph    
Visibility 10 miles    
Events      
Averages and records for this station are not official NWS values.
T = Trace of Precipitation, MM = Missing Value Source: NWS Daily Summary

Daily Weather History Graph

Daily Weather History Graph

Search for Another Location

Airport or City:

Trip Planner

Search our weather history database for the weather conditions in past years. The results will help you decide how hot, cold, wet, or windy it might be!

Date:

Astronomy

Apr. 10, 2014 Rise Set
Actual Time 6:25 AM EDT 7:30 PM EDT
Civil Twilight 5:57 AM EDT 7:58 PM EDT
Nautical Twilight 5:23 AM EDT 8:32 PM EDT
Astronomical Twilight 4:48 AM EDT 9:07 PM EDT
Moon 3:10 PM EDT (4/10) 3:48 AM EDT (4/10)
Length of Visible Light 14h 01m
Length of Day
13h 05m
Waxing Gibbous, 79% of the Moon is Illuminated
Apr 10
Waxing Gibbous
Apr 15
Full
Apr 22
Last Quarter
Apr 29
New
May 6
First Quarter

Hourly Weather History & Observations

Time (EDT) Temp. Windchill Dew Point Humidity Pressure Visibility Wind Dir Wind Speed Gust Speed Precip Events Conditions
12:51 AM 45.0 °F 42.6 °F 15.1 °F 30% 30.06 in 10.0 mi NW 4.6 mph - N/A   Clear
1:51 AM 45.0 °F - 14.0 °F 29% 30.06 in 10.0 mi Calm Calm - N/A   Clear
2:51 AM 41.0 °F - 16.0 °F 36% 30.07 in 10.0 mi Calm Calm - N/A   Clear
3:51 AM 37.9 °F 35.5 °F 18.0 °F 45% 30.09 in 10.0 mi South 3.5 mph - N/A   Clear
4:51 AM 39.9 °F - 17.1 °F 40% 30.11 in 10.0 mi Calm Calm - N/A   Clear
5:51 AM 37.9 °F - 19.9 °F 48% 30.13 in 10.0 mi Calm Calm - N/A   Clear
6:51 AM 37.0 °F - 21.9 °F 54% 30.17 in 10.0 mi Calm Calm - N/A   Clear
7:51 AM 43.0 °F - 24.1 °F 47% 30.19 in 10.0 mi Calm Calm - N/A   Clear
8:51 AM 50.0 °F - 23.0 °F 35% 30.20 in 10.0 mi South 8.1 mph - N/A   Clear
9:51 AM 53.1 °F - 21.0 °F 29% 30.21 in 10.0 mi South 11.5 mph - N/A   Clear
10:51 AM 55.0 °F - 21.0 °F 27% 30.21 in 10.0 mi South 11.5 mph - N/A   Clear
11:51 AM 59.0 °F - 24.1 °F 26% 30.18 in 10.0 mi SSW 16.1 mph 23.0 mph N/A   Clear
12:51 PM 60.1 °F - 25.0 °F 26% 30.15 in 10.0 mi South 15.0 mph 21.9 mph N/A   Clear
1:51 PM 61.0 °F - 27.0 °F 27% 30.13 in 10.0 mi South 13.8 mph 20.7 mph N/A   Clear
2:51 PM 62.1 °F - 27.0 °F 26% 30.11 in 10.0 mi SSE 15.0 mph 21.9 mph N/A   Clear
3:51 PM 61.0 °F - 27.0 °F 27% 30.08 in 10.0 mi South 15.0 mph 24.2 mph N/A   Clear
4:51 PM 63.0 °F - 28.9 °F 28% 30.05 in 10.0 mi SSE 13.8 mph 23.0 mph N/A   Clear
5:51 PM 60.1 °F - 32.0 °F 35% 30.04 in 10.0 mi South 13.8 mph 25.3 mph N/A   Clear
6:51 PM 59.0 °F - 35.1 °F 41% 30.04 in 10.0 mi South 12.7 mph 20.7 mph N/A   Clear
7:51 PM 57.0 °F - 36.0 °F 45% 30.04 in 10.0 mi South 11.5 mph - N/A   Clear
8:51 PM 55.9 °F - 36.0 °F 47% 30.05 in 10.0 mi South 12.7 mph - N/A   Clear
9:51 PM 55.9 °F - 32.0 °F 40% 30.04 in 10.0 mi South 8.1 mph - N/A   Clear
10:51 PM 55.4 °F - 32.0 °F 41% 30.03 in 10.0 mi South 13.8 mph - N/A   Partly Cloudy
11:51 PM 57.0 °F - 32.0 °F 39% 30.03 in 10.0 mi South 13.8 mph - N/A   Partly Cloudy